Location: Unspecified
(33.9239°N, 118.0544°W)
Time: 14:24:15
(UTC-07:00)

Cosmos 2058 - Visible Passes

Search period start: 17 April 2014 00:00
Search period end: 27 April 2014 00:00
Orbit: 572 x 595 km, 82.5° (Epoch: 16 April)

Date Brightness Start Highest point End Pass type
(mag) Time Alt. Az. Time Alt. Az. Time Alt. Az.
18 Apr 6.0 04:48:11 10° ESE 04:50:26 14° E 04:52:42 10° NE visible
19 Apr 5.6 04:53:20 10° SE 04:56:31 21° E 04:59:42 10° NE visible
20 Apr 4.9 04:58:53 10° SSE 05:02:36 30° E 05:06:20 10° NNE visible
21 Apr 4.1 05:04:40 10° SSE 05:08:44 45° E 05:12:48 10° NNE visible
22 Apr 3.3 05:10:39 10° S 05:14:52 69° E 05:19:06 10° NNE visible
23 Apr 2.9 05:16:47 10° S 05:21:02 78° W 05:25:18 10° N visible
24 Apr 3.2 05:23:04 10° SSW 05:27:13 51° W 05:31:22 10° N visible
25 Apr 5.8 03:54:23 10° ESE 03:56:40 14° E 03:58:57 10° NE visible
25 Apr 3.7 05:29:33 10° SW 05:33:25 34° W 05:37:18 10° NNW visible
26 Apr 5.4 03:59:31 10° SE 04:02:42 21° E 04:05:53 10° NE visible
26 Apr 4.2 05:36:13 10° SW 05:39:39 23° WNW 05:43:05 10° NNW visible
